Home   Weather   Santiago   Past weeks

Flag for Chile Past Weather in Santiago, Chile — Yesterday and Last 2 Weeks

Now
45 °F

Fog.


Feels Like: 45 °F
Forecast: 46 / 52 °F
Wind: 2 mph from North

Location: Pudahuel

Current Time: Jul 23, 2017 at 8:45:17 am

Latest Report: Jul 23, 2017 at 8:00 am


Visibility: 2 mi

Pressure: 30.15 "Hg (28.10 "Hg at 576m altitude)

Humidity: 93%

Dew Point: 43 °F

Location of SantiagoLocation

Past Weather in Santiago — Graph

°F

Santiago Temperature Yesterday

Maximum temperature yesterday: 52 °F (at 2:00 pm)
Minimum temperature yesterday: 45 °F (at 12:23 am)
Average temperature yesterday: 49 °F

High & Low Weather Summary for the Past Weeks

 TemperatureHumidityPressure
High72 °F (Jul 19, 4:00 pm)100% (Jul 9, 5:00 am)30.42 "Hg (Jul 9, 5:00 am)
Low28 °F (Jul 17, 6:00 am)28% (Jul 18, 3:00 pm)29.92 "Hg (Jul 11, 1:00 pm)
Average47 °F78%30.12 "Hg
* Reported Jul 8 7:00 am — Jul 23 7:00 am, Santiago. Weather by CustomWeather, © 2017

Note: Actual official high and low records may vary slightly from our data, if they occured in-between our weather recording intervals... More about our weather records

Advertising

Santiago Weather History for the Previous 24 Hours

Scroll right to see more
 ConditionsComfort  
Time TempWeatherWind HumidityBarometerVisibility
7:00 am
Sun, Jul 23
43 °FQuite cool.6 mph93%30.12 "Hg2 mi
6:00 am43 °FQuite cool.6 mph100%30.12 "Hg2 mi
5:00 am45 °FQuite cool.No wind93%30.12 "Hg2 mi
4:00 am45 °FFog.5 mph100%30.12 "Hg2 mi
3:00 am45 °FFog.5 mph100%30.15 "Hg2 mi
2:00 am48 °FFog.1 mph87%30.15 "Hg2 mi
1:00 am50 °FFog.1 mph88%30.15 "Hg3 mi
12:00 am48 °FOvercast.No wind94%30.12 "Hg4 mi
11:00 pm
Sat, Jul 22
48 °FRain. Fog.6 mph94%30.12 "Hg3 mi
10:00 pm50 °FOvercast.3 mph82%30.12 "Hg5 mi
9:00 pm50 °FOvercast.No wind82%30.12 "Hg4 mi
8:00 pm50 °FOvercast.3 mph88%30.12 "Hg4 mi
7:00 pm52 °FOvercast.6 mph77%30.09 "Hg4 mi
6:00 pm52 °FOvercast.6 mph82%30.09 "Hg4 mi
5:00 pm52 °FPartly sunny.7 mph82%30.09 "Hg4 mi
4:00 pm52 °FBroken clouds.7 mph82%30.09 "Hg4 mi
3:00 pm52 °FMore clouds than sun.8 mph82%30.09 "Hg3 mi
2:00 pm52 °FMore clouds than sun.2 mph77%30.09 "Hg4 mi
1:00 pm50 °FLow clouds.10 mph88%30.12 "Hg3 mi
12:00 pm48 °FDrizzle. Low clouds.7 mph94%30.12 "Hg2 mi
11:00 am46 °FDrizzle. More clouds than sun.6 mph100%30.12 "Hg1 mi
10:00 am48 °FCool.2 mph94%30.09 "Hg2 mi
9:00 am48 °FDrizzle. Fog.3 mph94%30.07 "Hg2 mi
8:00 am46 °FDrizzle. Fog.1 mph100%30.07 "Hg1 mi
Weather by CustomWeather, © 2017

See weather overviewHow to use our weather pages